QPF
0.08 0.11 0.12 0.12 0.12 0.10 0.09 0.07 0.06 0.06 0.05 0.04 0.03 0.02 0.02 0.02 0.01 0.01 0.00 0.00 0.00 0.00 0.00 0.00 0.00 0.00 0.00 0.00 0.00 0.00 0.00 0.00 0.00 0.00 0.00 0.00 0.00 0.00 0.00 0.00 0.00 0.00 0.00
0.07 0.09 0.13 0.13 0.13 0.12 0.10 0.09 0.08 0.08 0.08 0.06 0.05 0.04 0.04 0.03 0.02 0.01 0.00 0.00 0.00 0.00 0.00 0.00 0.00 0.00 0.00 0.00 0.00 0.00 0.00 0.00 0.00 0.00 0.00 0.00 0.00 0.00 0.00 0.00 0.00 0.00 0.00
0.06 0.09 0.11 0.11 0.12 0.11 0.09 0.08 0.07 0.07 0.08 0.08 0.05 0.05 0.04 0.03 0.02 0.01 0.01 0.00 0.00 0.00 0.00 0.00 0.00 0.00 0.00 0.00 0.00 0.00 0.00 0.00 0.00 0.00 0.00 0.00 0.00 0.00 0.00 0.00 0.00 0.01 0.01
0.06 0.07 0.07 0.09 0.09 0.09 0.09 0.08 0.06 0.05 0.07 0.08 0.05 0.04 0.04 0.03 0.02 0.02 0.02 0.01 0.01 0.00 0.00 0.00 0.00 0.00 0.00 0.00 0.00 0.01 0.00 0.00 0.00 0.00 0.00 0.00 0.00 0.00 0.00 0.00 0.00 0.00 0.00
0.05 0.06 0.06 0.07 0.08 0.09 0.09 0.08 0.07 0.06 0.06 0.08 0.07 0.05 0.04 0.04 0.02 0.02 0.02 0.01 0.01 0.01 0.01 0.01 0.01 0.01 0.01 0.01 0.01 0.01 0.00 0.00 0.00 0.00 0.00 0.00 0.00 0.00 0.00 0.00 0.00 0.00 0.00
0.05 0.06 0.06 0.07 0.07 0.06 0.08 0.08 0.07 0.06 0.07 0.08 0.09 0.07 0.05 0.03 0.03 0.03 0.02 0.02 0.02 0.02 0.01 0.01 0.01 0.01 0.01 0.01 0.01 0.01 0.00 0.00 0.00 0.00 0.00 0.00 0.00 0.00 0.00 0.00 0.00 0.00 0.00
0.06 0.05 0.04 0.05 0.06 0.05 0.06 0.08 0.08 0.07 0.07 0.07 0.07 0.09 0.07 0.05 0.04 0.04 0.03 0.03 0.03 0.03 0.02 0.02 0.01 0.01 0.02 0.01 0.01 0.01 0.01 0.01 0.00 0.00 0.00 0.00 0.00 0.00 0.00 0.00 0.00 0.00 0.00
0.06 0.05 0.05 0.04 0.06 0.07 0.08 0.08 0.08 0.08 0.07 0.07 0.06 0.07 0.07 0.06 0.06 0.06 0.05 0.05 0.04 0.04 0.03 0.02 0.01 0.01 0.02 0.01 0.01 0.01 0.01 0.01 0.01 0.01 0.01 0.00 0.00 0.00 0.01 0.01 0.01 0.01 0.00
0.06 0.06 0.05 0.04 0.05 0.06 0.06 0.08 0.07 0.08 0.08 0.06 0.06 0.07 0.08 0.08 0.08 0.08 0.08 0.07 0.06 0.04 0.03 0.03 0.02 0.01 0.02 0.02 0.02 0.01 0.01 0.01 0.02 0.02 0.01 0.01 0.01 0.01 0.01 0.01 0.01 0.01 0.00
0.06 0.06 0.06 0.06 0.05 0.05 0.05 0.08 0.09 0.08 0.09 0.09 0.07 0.05 0.05 0.06 0.07 0.09 0.10 0.08 0.06 0.05 0.04 0.04 0.03 0.03 0.02 0.03 0.03 0.02 0.02 0.02 0.02 0.01 0.01 0.01 0.01 0.00 0.01 0.01 0.01 0.01 0.01
0.07 0.07 0.08 0.08 0.09 0.09 0.07 0.07 0.07 0.07 0.08 0.09 0.08 0.08 0.07 0.08 0.11 0.11 0.10 0.08 0.07 0.06 0.05 0.04 0.04 0.04 0.03 0.02 0.02 0.02 0.02 0.01 0.01 0.01 0.01 0.01 0.01 0.00 0.01 0.01 0.01 0.01 0.02
0.09 0.09 0.09 0.10 0.10 0.11 0.11 0.10 0.09 0.10 0.10 0.09 0.10 0.11 0.10 0.11 0.10 0.09 0.09 0.09 0.09 0.07 0.07 0.06 0.04 0.03 0.02 0.02 0.02 0.01 0.01 0.01 0.01 0.01 0.01 0.00 0.00 0.00 0.01 0.01 0.01 0.02 0.02
0.08 0.07 0.07 0.09 0.10 0.09 0.09 0.09 0.09 0.09 0.09 0.10 0.11 0.12 0.10 0.08 0.08 0.09 0.09 0.09 0.08 0.06 0.05 0.04 0.03 0.03 0.02 0.02 0.01 0.01 0.01 0.01 0.00 0.00 0.00 0.00 0.01 0.01 0.01 0.01 0.02 0.02 0.02
0.11 0.09 0.09 0.12 0.11 0.10 0.09 0.08 0.08 0.08 0.09 0.09 0.10 0.10 0.08 0.08 0.09 0.09 0.08 0.09 0.09 0.07 0.06 0.05 0.05 0.03 0.03 0.02 0.02 0.02 0.01 0.01 0.01 0.01 0.01 0.01 0.01 0.02 0.02 0.02 0.02 0.02 0.02
0.13 0.12 0.09 0.10 0.11 0.11 0.09 0.10 0.10 0.11 0.10 0.10 0.10 0.10 0.08 0.08 0.08 0.08 0.07 0.07 0.07 0.07 0.07 0.06 0.06 0.05 0.05 0.04 0.03 0.03 0.02 0.02 0.02 0.02 0.02 0.02 0.02 0.02 0.02 0.03 0.03 0.03 0.03
0.11 0.11 0.11 0.10 0.10 0.09 0.10 0.11 0.12 0.12 0.11 0.11 0.12 0.10 0.08 0.08 0.06 0.05 0.04 0.04 0.04 0.04 0.04 0.04 0.04 0.04 0.03 0.03 0.03 0.04 0.04 0.05 0.05 0.04 0.04 0.04 0.04 0.04 0.03 0.03 0.03 0.03 0.02
0.14 0.12 0.10 0.09 0.10 0.10 0.10 0.10 0.09 0.10 0.10 0.10 0.09 0.08 0.07 0.06 0.04 0.05 0.04 0.04 0.04 0.03 0.02 0.02 0.03 0.04 0.04 0.05 0.05 0.04 0.04 0.04 0.03 0.03 0.03 0.03 0.03 0.03 0.03 0.03 0.03 0.03 0.02
0.15 0.15 0.13 0.13 0.12 0.12 0.11 0.11 0.10 0.11 0.11 0.11 0.11 0.11 0.09 0.07 0.06 0.05 0.05 0.05 0.04 0.03 0.03 0.03 0.03 0.04 0.05 0.04 0.03 0.02 0.02 0.02 0.02 0.03 0.03 0.03 0.03 0.03 0.02 0.02 0.02 0.02 0.01
0.19 0.19 0.16 0.15 0.16 0.19 0.19 0.18 0.19 0.17 0.14 0.14 0.13 0.11 0.08 0.06 0.05 0.04 0.04 0.03 0.03 0.03 0.04 0.04 0.04 0.04 0.03 0.02 0.02 0.02 0.02 0.02 0.02 0.02 0.02 0.02 0.02 0.02 0.02 0.02 0.02 0.02 0.01
0.15 0.16 0.16 0.15 0.16 0.20 0.23 0.21 0.19 0.20 0.21 0.20 0.16 0.12 0.10 0.07 0.04 0.03 0.03 0.02 0.03 0.03 0.03 0.03 0.03 0.03 0.03 0.03 0.03 0.02 0.02 0.02 0.02 0.02 0.02 0.02 0.02 0.02 0.02 0.02 0.02 0.02 0.02
0.15 0.14 0.15 0.16 0.16 0.17 0.17 0.17 0.15 0.14 0.13 0.11 0.10 0.10 0.11 0.11 0.09 0.06 0.04 0.04 0.03 0.03 0.03 0.03 0.03 0.03 0.03 0.03 0.03 0.02 0.02 0.02 0.02 0.03 0.03 0.03 0.03 0.03 0.03 0.03 0.03 0.03 0.03
0.11 0.13 0.13 0.14 0.14 0.13 0.13 0.11 0.10 0.09 0.08 0.07 0.06 0.06 0.08 0.09 0.10 0.09 0.08 0.07 0.06 0.05 0.05 0.04 0.04 0.03 0.02 0.02 0.02 0.02 0.02 0.02 0.02 0.02 0.02 0.01 0.01 0.02 0.02 0.02 0.02 0.03 0.03
0.06 0.06 0.07 0.07 0.08 0.10 0.10 0.10 0.10 0.11 0.10 0.09 0.09 0.08 0.08 0.08 0.08 0.07 0.06 0.06 0.05 0.04 0.04 0.03 0.03 0.03 0.03 0.02 0.02 0.02 0.01 0.01 0.01 0.01 0.01 0.01 0.01 0.01 0.01 0.01 0.02 0.02 0.03
0.08 0.07 0.07 0.06 0.06 0.06 0.07 0.08 0.09 0.09 0.09 0.07 0.06 0.06 0.06 0.06 0.05 0.04 0.03 0.03 0.02 0.02 0.01 0.01 0.01 0.01 0.01 0.01 0.01 0.01 0.01 0.01 0.01 0.01 0.01 0.01 0.01 0.01 0.01 0.01 0.01 0.01 0.01
0.07 0.08 0.07 0.06 0.06 0.05 0.04 0.05 0.06 0.07 0.07 0.06 0.06 0.06 0.06 0.05 0.04 0.03 0.02 0.02 0.01 0.01 0.01 0.00 0.00 0.00 0.00 0.00 0.00 0.00 0.00 0.01 0.01 0.01 0.01 0.01 0.01 0.01 0.01 0.01 0.01 0.01 0.01
0.01 0.02 0.03 0.03 0.03 0.03 0.03 0.03 0.04 0.04 0.04 0.04 0.04 0.04 0.04 0.03 0.03 0.03 0.02 0.01 0.01 0.01 0.00 0.00 0.00 0.00 0.00 0.00 0.00 0.00 0.01 0.01 0.01 0.01 0.01 0.01 0.01 0.01 0.01 0.01 0.01 0.01 0.01
MSLP
1009.59 1010.26 1010.93 1011.56 1012.14 1012.63 1013.06 1013.44 1013.81 1014.18 1014.58 1015.02 1015.49 1015.96 1016.40 1016.80 1017.14 1017.41 1017.62 1017.79 1017.94 1018.08 1018.24 1018.41 1018.58 1018.74 1018.88 1018.98 1019.04 1019.05 1019.02 1018.96 1018.89 1018.81 1018.72 1018.63 1018.53 1018.41 1018.28 1018.15 1018.01 1017.90 1017.81
1009.61 1010.19 1010.80 1011.39 1011.94 1012.44 1012.89 1013.31 1013.71 1014.12 1014.54 1015.00 1015.47 1015.93 1016.37 1016.77 1017.11 1017.39 1017.62 1017.80 1017.96 1018.11 1018.25 1018.39 1018.53 1018.65 1018.76 1018.84 1018.89 1018.92 1018.93 1018.93 1018.92 1018.89 1018.84 1018.77 1018.67 1018.53 1018.36 1018.17 1017.97 1017.78 1017.62
1009.61 1010.14 1010.69 1011.24 1011.77 1012.27 1012.73 1013.17 1013.61 1014.04 1014.49 1014.95 1015.41 1015.87 1016.30 1016.69 1017.03 1017.31 1017.54 1017.74 1017.90 1018.04 1018.17 1018.29 1018.40 1018.50 1018.59 1018.66 1018.72 1018.77 1018.82 1018.86 1018.91 1018.93 1018.93 1018.89 1018.81 1018.66 1018.47 1018.24 1017.99 1017.74 1017.52
1009.54 1010.04 1010.56 1011.08 1011.59 1012.08 1012.55 1013.01 1013.47 1013.92 1014.38 1014.85 1015.31 1015.76 1016.17 1016.54 1016.87 1017.15 1017.38 1017.58 1017.74 1017.89 1018.01 1018.12 1018.22 1018.30 1018.37 1018.43 1018.50 1018.57 1018.65 1018.73 1018.82 1018.89 1018.93 1018.92 1018.86 1018.73 1018.54 1018.29 1018.02 1017.73 1017.47
1009.36 1009.86 1010.36 1010.86 1011.36 1011.85 1012.33 1012.80 1013.27 1013.74 1014.22 1014.69 1015.15 1015.58 1015.98 1016.34 1016.65 1016.92 1017.15 1017.34 1017.51 1017.66 1017.78 1017.89 1017.98 1018.06 1018.12 1018.18 1018.25 1018.32 1018.41 1018.51 1018.62 1018.72 1018.78 1018.81 1018.77 1018.66 1018.49 1018.26 1017.98 1017.69 1017.40
1009.09 1009.59 1010.10 1010.60 1011.09 1011.57 1012.06 1012.54 1013.03 1013.51 1014.00 1014.48 1014.94 1015.36 1015.75 1016.09 1016.38 1016.64 1016.86 1017.05 1017.22 1017.38 1017.51 1017.62 1017.72 1017.79 1017.86 1017.91 1017.96 1018.02 1018.10 1018.19 1018.29 1018.39 1018.47 1018.51 1018.50 1018.42 1018.28 1018.08 1017.83 1017.55 1017.27
1008.74 1009.27 1009.79 1010.30 1010.79 1011.27 1011.76 1012.25 1012.75 1013.26 1013.75 1014.24 1014.69 1015.11 1015.48 1015.81 1016.09 1016.33 1016.54 1016.73 1016.91 1017.07 1017.21 1017.34 1017.44 1017.52 1017.57 1017.61 1017.64 1017.67 1017.72 1017.77 1017.84 1017.92 1017.98 1018.03 1018.03 1017.98 1017.87 1017.72 1017.52 1017.28 1017.02
1008.36 1008.93 1009.48 1009.99 1010.49 1010.98 1011.47 1011.97 1012.48 1013.00 1013.50 1013.99 1014.44 1014.85 1015.21 1015.51 1015.77 1016.00 1016.20 1016.39 1016.57 1016.74 1016.90 1017.03 1017.15 1017.22 1017.27 1017.29 1017.29 1017.27 1017.27 1017.27 1017.28 1017.31 1017.35 1017.37 1017.38 1017.35 1017.29 1017.18 1017.03 1016.83 1016.61
1007.98 1008.59 1009.17 1009.71 1010.22 1010.72 1011.22 1011.72 1012.24 1012.76 1013.26 1013.75 1014.19 1014.59 1014.92 1015.21 1015.45 1015.65 1015.84 1016.02 1016.20 1016.38 1016.54 1016.69 1016.81 1016.89 1016.93 1016.92 1016.88 1016.82 1016.75 1016.69 1016.64 1016.62 1016.60 1016.60 1016.60 1016.59 1016.55 1016.48 1016.37 1016.23 1016.04
1007.59 1008.26 1008.87 1009.44 1009.97 1010.48 1010.99 1011.50 1012.02 1012.54 1013.04 1013.51 1013.94 1014.31 1014.62 1014.88 1015.10 1015.28 1015.45 1015.62 1015.79 1015.96 1016.14 1016.29 1016.41 1016.49 1016.52 1016.49 1016.42 1016.31 1016.19 1016.07 1015.96 1015.87 1015.81 1015.77 1015.75 1015.73 1015.71 1015.66 1015.59 1015.48 1015.33
1007.16 1007.88 1008.53 1009.14 1009.70 1010.23 1010.75 1011.28 1011.80 1012.31 1012.81 1013.27 1013.67 1014.02 1014.30 1014.53 1014.71 1014.87 1015.02 1015.16 1015.32 1015.49 1015.66 1015.82 1015.94 1016.02 1016.04 1016.00 1015.90 1015.77 1015.60 1015.43 1015.26 1015.12 1015.01 1014.94 1014.88 1014.85 1014.82 1014.78 1014.73 1014.64 1014.52
1006.65 1007.41 1008.11 1008.76 1009.36 1009.93 1010.48 1011.02 1011.55 1012.07 1012.55 1013.00 1013.38 1013.70 1013.96 1014.15 1014.31 1014.43 1014.56 1014.68 1014.83 1014.98 1015.14 1015.30 1015.42 1015.50 1015.51 1015.47 1015.36 1015.21 1015.02 1014.81 1014.61 1014.43 1014.27 1014.16 1014.07 1014.01 1013.96 1013.91 1013.86 1013.77 1013.66
1006.00 1006.80 1007.56 1008.26 1008.92 1009.54 1010.13 1010.70 1011.26 1011.78 1012.27 1012.70 1013.07 1013.37 1013.60 1013.78 1013.91 1014.01 1014.11 1014.22 1014.35 1014.49 1014.64 1014.78 1014.90 1014.98 1015.00 1014.96 1014.85 1014.69 1014.49 1014.27 1014.05 1013.84 1013.65 1013.50 1013.38 1013.28 1013.20 1013.12 1013.04 1012.94 1012.82
1005.22 1006.06 1006.87 1007.64 1008.37 1009.06 1009.71 1010.33 1010.92 1011.47 1011.97 1012.41 1012.77 1013.07 1013.29 1013.46 1013.58 1013.67 1013.76 1013.86 1013.97 1014.10 1014.24 1014.38 1014.49 1014.57 1014.59 1014.55 1014.45 1014.30 1014.10 1013.88 1013.65 1013.42 1013.21 1013.03 1012.86 1012.72 1012.60 1012.48 1012.36 1012.24 1012.10
1004.35 1005.24 1006.11 1006.95 1007.76 1008.53 1009.26 1009.95 1010.59 1011.18 1011.70 1012.16 1012.55 1012.85 1013.09 1013.26 1013.39 1013.49 1013.59 1013.69 1013.80 1013.92 1014.06 1014.18 1014.29 1014.36 1014.39 1014.35 1014.26 1014.11 1013.93 1013.71 1013.47 1013.23 1013.00 1012.78 1012.58 1012.39 1012.22 1012.06 1011.90 1011.73 1011.56
1003.53 1004.45 1005.38 1006.30 1007.19 1008.05 1008.86 1009.63 1010.33 1010.98 1011.55 1012.05 1012.46 1012.80 1013.07 1013.27 1013.44 1013.57 1013.69 1013.80 1013.93 1014.05 1014.18 1014.30 1014.40 1014.47 1014.48 1014.45 1014.36 1014.21 1014.02 1013.80 1013.56 1013.30 1013.05 1012.80 1012.56 1012.33 1012.11 1011.90 1011.69 1011.49 1011.29
1002.90 1003.85 1004.83 1005.82 1006.80 1007.74 1008.63 1009.47 1010.24 1010.94 1011.57 1012.11 1012.58 1012.96 1013.28 1013.54 1013.75 1013.93 1014.09 1014.24 1014.38 1014.52 1014.66 1014.77 1014.86 1014.91 1014.91 1014.86 1014.76 1014.60 1014.41 1014.17 1013.91 1013.64 1013.35 1013.07 1012.79 1012.52 1012.25 1012.00 1011.76 1011.52 1011.30
1002.62 1003.59 1004.61 1005.66 1006.69 1007.69 1008.65 1009.55 1010.38 1011.13 1011.80 1012.40 1012.91 1013.36 1013.73 1014.05 1014.33 1014.56 1014.78 1014.97 1015.15 1015.30 1015.44 1015.55 1015.63 1015.66 1015.64 1015.56 1015.44 1015.26 1015.03 1014.78 1014.49 1014.18 1013.87 1013.55 1013.23 1012.92 1012.62 1012.33 1012.06 1011.79 1011.54
1002.81 1003.78 1004.81 1005.88 1006.94 1007.98 1008.97 1009.90 1010.77 1011.55 1012.27 1012.90 1013.46 1013.95 1014.39 1014.77 1015.11 1015.41 1015.67 1015.91 1016.12 1016.30 1016.45 1016.55 1016.61 1016.61 1016.56 1016.46 1016.29 1016.08 1015.82 1015.52 1015.20 1014.86 1014.51 1014.15 1013.80 1013.46 1013.13 1012.82 1012.52 1012.23 1011.95
1003.49 1004.44 1005.45 1006.51 1007.56 1008.60 1009.59 1010.52 1011.39 1012.19 1012.91 1013.57 1014.16 1014.70 1015.18 1015.61 1016.00 1016.35 1016.67 1016.95 1017.18 1017.38 1017.53 1017.62 1017.66 1017.63 1017.55 1017.40 1017.19 1016.93 1016.63 1016.29 1015.93 1015.55 1015.16 1014.77 1014.39 1014.02 1013.67 1013.33 1013.02 1012.71 1012.41
1004.63 1005.52 1006.49 1007.49 1008.50 1009.50 1010.45 1011.35 1012.20 1012.98 1013.69 1014.35 1014.95 1015.50 1016.01 1016.47 1016.90 1017.28 1017.63 1017.93 1018.19 1018.39 1018.53 1018.61 1018.62 1018.56 1018.43 1018.24 1017.99 1017.68 1017.34 1016.95 1016.55 1016.13 1015.71 1015.29 1014.88 1014.50 1014.12 1013.77 1013.43 1013.11 1012.79
1006.10 1006.91 1007.80 1008.72 1009.66 1010.58 1011.47 1012.31 1013.10 1013.84 1014.53 1015.17 1015.76 1016.30 1016.81 1017.28 1017.72 1018.12 1018.47 1018.77 1019.02 1019.21 1019.34 1019.39 1019.37 1019.27 1019.10 1018.87 1018.57 1018.22 1017.84 1017.41 1016.97 1016.52 1016.07 1015.62 1015.19 1014.78 1014.39 1014.03 1013.67 1013.33 1012.99
1007.73 1008.46 1009.25 1010.07 1010.91 1011.74 1012.55 1013.32 1014.05 1014.74 1015.38 1015.98 1016.54 1017.07 1017.56 1018.01 1018.43 1018.80 1019.14 1019.42 1019.64 1019.79 1019.88 1019.89 1019.83 1019.70 1019.49 1019.21 1018.88 1018.49 1018.07 1017.61 1017.14 1016.66 1016.18 1015.71 1015.26 1014.83 1014.42 1014.04 1013.66 1013.30 1012.93
1009.38 1010.01 1010.69 1011.42 1012.16 1012.90 1013.63 1014.33 1015.00 1015.64 1016.23 1016.79 1017.32 1017.80 1018.25 1018.67 1019.04 1019.37 1019.66 1019.88 1020.05 1020.15 1020.19 1020.15 1020.04 1019.86 1019.60 1019.29 1018.92 1018.50 1018.05 1017.56 1017.07 1016.56 1016.06 1015.57 1015.10 1014.65 1014.22 1013.81 1013.42 1013.02 1012.62
1010.91 1011.45 1012.05 1012.68 1013.34 1014.01 1014.67 1015.32 1015.95 1016.54 1017.10 1017.62 1018.10 1018.55 1018.95 1019.31 1019.62 1019.88 1020.10 1020.25 1020.34 1020.37 1020.34 1020.23 1020.06 1019.83 1019.53 1019.18 1018.77 1018.33 1017.84 1017.34 1016.82 1016.29 1015.77 1015.26 1014.77 1014.30 1013.84 1013.41 1012.98 1012.56 1012.13
1012.27 1012.75 1013.28 1013.85 1014.45 1015.07 1015.70 1016.31 1016.91 1017.47 1018.01 1018.50 1018.95 1019.34 1019.69 1019.98 1020.22 1020.41 1020.54 1020.60 1020.60 1020.55 1020.43 1020.25 1020.02 1019.72 1019.38 1018.98 1018.54 1018.07 1017.56 1017.03 1016.49 1015.95 1015.40 1014.87 1014.35 1013.85 1013.37 1012.91 1012.46 1012.01 1011.56
Thickness
5746 5744 5742 5740 5738 5736 5734 5734 5734 5733 5732 5732 5732 5730 5729 5728 5728 5726 5725 5724 5723 5721 5721 5720 5718 5718 5716 5715 5714 5712 5709 5706 5699 5699 5702 5703 5702 5700 5699 5697 5695 5693 5692
5746 5743 5741 5739 5737 5735 5733 5733 5733 5732 5732 5731 5730 5729 5727 5726 5725 5724 5723 5722 5720 5719 5718 5717 5715 5715 5713 5712 5710 5708 5706 5704 5700 5696 5697 5697 5698 5697 5695 5693 5692 5691 5690
5746 5742 5739 5737 5736 5734 5734 5733 5732 5732 5731 5730 5729 5727 5726 5725 5723 5722 5721 5720 5718 5717 5716 5714 5713 5712 5709 5708 5706 5704 5702 5701 5698 5694 5692 5692 5692 5692 5690 5689 5688 5687 5687
5745 5742 5739 5737 5736 5736 5734 5733 5733 5732 5730 5729 5728 5727 5725 5724 5722 5721 5719 5718 5716 5716 5715 5713 5712 5710 5707 5705 5703 5700 5698 5696 5693 5690 5687 5686 5686 5686 5684 5681 5680 5681 5681
5744 5741 5739 5738 5737 5736 5735 5734 5733 5731 5730 5728 5727 5725 5724 5722 5721 5720 5718 5716 5714 5712 5712 5711 5711 5709 5708 5705 5702 5698 5696 5691 5688 5685 5682 5680 5679 5678 5677 5676 5674 5674 5675
5744 5741 5739 5738 5736 5736 5735 5733 5731 5729 5728 5726 5724 5723 5722 5722 5722 5720 5718 5715 5713 5710 5708 5708 5707 5706 5705 5703 5701 5699 5695 5690 5685 5682 5679 5676 5675 5674 5673 5671 5668 5665 5664
5742 5741 5739 5738 5736 5735 5734 5731 5730 5728 5726 5724 5723 5722 5720 5721 5720 5718 5716 5714 5711 5709 5707 5705 5704 5704 5702 5699 5697 5696 5693 5691 5687 5683 5677 5675 5673 5672 5669 5666 5663 5660 5659
5741 5740 5739 5737 5736 5734 5732 5730 5729 5727 5725 5723 5722 5721 5719 5719 5718 5716 5714 5712 5709 5707 5705 5703 5701 5700 5698 5695 5692 5690 5688 5686 5684 5681 5678 5676 5674 5671 5666 5663 5659 5657 5656
5740 5739 5739 5737 5734 5732 5730 5729 5728 5726 5724 5722 5721 5719 5717 5716 5716 5714 5711 5707 5705 5703 5703 5701 5699 5697 5696 5692 5688 5684 5682 5681 5681 5678 5676 5673 5670 5666 5662 5656 5652 5647 5646
5741 5740 5739 5737 5735 5732 5731 5729 5728 5726 5723 5722 5720 5718 5717 5715 5714 5711 5708 5704 5701 5700 5698 5698 5696 5694 5691 5688 5684 5680 5676 5676 5674 5672 5670 5667 5664 5661 5657 5651 5647 5641 5637
5742 5740 5738 5736 5734 5732 5729 5728 5726 5724 5721 5719 5717 5716 5714 5713 5711 5708 5705 5702 5699 5696 5694 5692 5691 5690 5687 5683 5680 5677 5675 5672 5668 5665 5662 5660 5657 5654 5651 5647 5642 5637 5632
5741 5738 5736 5735 5733 5731 5727 5725 5723 5721 5717 5714 5712 5711 5710 5709 5707 5705 5701 5699 5697 5693 5691 5689 5688 5685 5682 5678 5675 5673 5669 5665 5661 5657 5654 5651 5648 5646 5643 5640 5636 5632 5628
5736 5734 5733 5731 5729 5728 5724 5721 5718 5716 5713 5710 5707 5705 5704 5704 5703 5701 5698 5695 5692 5689 5688 5685 5683 5679 5676 5673 5670 5666 5662 5657 5653 5649 5646 5644 5641 5639 5636 5632 5628 5624 5620
5731 5730 5728 5726 5724 5723 5720 5718 5715 5712 5709 5707 5704 5702 5700 5698 5696 5694 5692 5689 5685 5682 5680 5678 5675 5672 5669 5666 5662 5659 5654 5650 5646 5642 5640 5637 5633 5629 5625 5621 5617 5613 5608
5725 5723 5722 5721 5719 5715 5712 5709 5709 5708 5707 5705 5703 5700 5696 5692 5691 5690 5687 5684 5681 5677 5673 5669 5666 5662 5659 5656 5653 5650 5646 5641 5637 5634 5630 5626 5622 5618 5614 5610 5605 5601 5596
5719 5717 5715 5713 5711 5708 5705 5700 5698 5699 5698 5698 5697 5695 5691 5688 5685 5683 5680 5678 5675 5671 5665 5661 5658 5654 5650 5647 5644 5640 5636 5632 5628 5624 5620 5615 5611 5606 5602 5598 5593 5588 5584
5714 5712 5710 5708 5705 5702 5699 5697 5691 5687 5687 5686 5684 5683 5682 5679 5677 5674 5671 5668 5664 5660 5656 5652 5648 5644 5641 5637 5633 5629 5626 5622 5617 5613 5608 5603 5599 5595 5590 5585 5580 5576 5572
5710 5708 5705 5702 5699 5696 5693 5691 5687 5683 5678 5673 5671 5671 5670 5668 5666 5663 5660 5656 5650 5646 5644 5641 5637 5633 5629 5625 5621 5617 5614 5610 5605 5600 5596 5591 5587 5582 5578 5573 5568 5564 5560
5702 5700 5698 5695 5691 5689 5686 5682 5678 5674 5669 5665 5661 5659 5657 5655 5653 5651 5648 5645 5640 5635 5632 5629 5625 5621 5617 5613 5609 5605 5601 5596 5591 5587 5582 5578 5574 5569 5565 5561 5556 5552 5548
5691 5690 5688 5685 5682 5679 5676 5672 5668 5665 5660 5656 5652 5649 5647 5644 5641 5637 5634 5631 5628 5624 5620 5616 5613 5609 5604 5600 5596 5591 5586 5582 5577 5573 5569 5564 5560 5556 5552 5548 5544 5540 5536
5678 5676 5676 5674 5670 5667 5663 5660 5657 5653 5649 5645 5640 5637 5636 5633 5629 5625 5621 5617 5614 5610 5606 5603 5599 5594 5590 5585 5581 5576 5571 5566 5562 5559 5555 5551 5547 5543 5539 5535 5531 5527 5524
5665 5663 5662 5659 5656 5653 5650 5647 5644 5640 5636 5632 5628 5626 5622 5619 5615 5611 5607 5603 5599 5596 5592 5588 5583 5579 5574 5570 5565 5560 5555 5551 5547 5544 5540 5536 5532 5528 5525 5521 5518 5515 5512
5651 5649 5647 5644 5642 5638 5635 5632 5629 5626 5622 5619 5616 5612 5609 5604 5600 5596 5592 5588 5585 5581 5576 5572 5567 5562 5558 5554 5550 5545 5540 5535 5532 5529 5525 5522 5518 5515 5512 5509 5506 5504 5502
5636 5635 5633 5630 5627 5623 5620 5616 5614 5611 5608 5605 5601 5597 5594 5590 5586 5582 5578 5574 5570 5566 5561 5557 5552 5547 5543 5539 5534 5530 5526 5522 5519 5515 5512 5508 5505 5503 5500 5498 5496 5494 5492
5622 5620 5617 5614 5611 5608 5605 5602 5599 5597 5594 5590 5586 5583 5579 5575 5571 5567 5562 5558 5554 5550 5546 5541 5537 5533 5529 5525 5521 5517 5513 5510 5507 5504 5500 5496 5494 5492 5489 5488 5486 5485 5484
5607 5605 5602 5600 5597 5594 5590 5587 5584 5581 5578 5576 5572 5569 5565 5560 5556 5552 5547 5543 5539 5535 5530 5526 5522 5519 5515 5511 5507 5504 5501 5498 5495 5492 5488 5486 5484 5482 5480 5479 5478 5477 5476